| time (UTC) | temp C | wind direction | speed KPH | gust KPH | rain 1hr cm | rain 24hr cm | rain mn cm | humidity % | barometer mb |
| 20260507074504 | 9 | 68 | 0.0 | 0.0 | 0.00 | 0.00 | 0.00 | 87 | 1011.1 |
| 20260507073457 | 8 | 68 | 0.0 | 0.0 | 0.00 | 0.00 | 0.00 | 87 | 1011.2 |
| 20260507072450 | 8 | 68 | 0.0 | 0.0 | 0.00 | 0.00 | 0.00 | 91 | 1011.2 |
| 20260507071442 | 7 | 68 | 0.0 | 0.0 | 0.00 | 0.00 | 0.00 | 93 | 1011.3 |
| 20260507070435 | 7 | 68 | 0.0 | 0.0 | 0.00 | 0.00 | 0.00 | 99 | 1011.4 |
| 20260507065429 | 7 | 68 | 0.0 | 0.0 | 0.00 | 0.00 | 0.00 | 97 | 1011.5 |
| 20260507064420 | 6 | 68 | 0.0 | 0.0 | 0.00 | 0.00 | 0.00 | 98 | 1011.4 |
| 20260507063414 | 6 | 68 | 0.0 | 0.0 | 0.00 | 0.00 | 0.00 | 99 | 1011.3 |
| 20260507062406 | 6 | 68 | 0.0 | 0.0 | 0.00 | 0.00 | 0.00 | 99 | 1011.3 |
| 20260507061358 | 6 | 68 | 0.0 | 0.0 | 0.00 | 0.00 | 0.00 | 99 | 1011.5 |
| 20260507060354 | 6 | 68 | 0.0 | 0.0 | 0.00 | 0.00 | 0.00 | 99 | 1011.5 |
| 20260507055344 | 5 | 68 | 0.0 | 0.0 | 0.00 | 0.00 | 0.00 | 99 | 1011.4 |
| 20260507054337 | 5 | 68 | 0.0 | 0.0 | 0.00 | 0.00 | 0.00 | 99 | 1011.4 |
| 20260507053334 | 4 | 68 | 0.0 | 0.0 | 0.00 | 0.00 | 0.00 | 99 | 1011.4 |
| 20260507052323 | 4 | 68 | 0.0 | 0.0 | 0.00 | 0.00 | 0.00 | 99 | 1011.4 |
| 20260507051316 | 4 | 68 | 0.0 | 0.0 | 0.00 | 0.00 | 0.00 | 99 | 1011.4 |
| 20260507050309 | 3 | 68 | 0.0 | 0.0 | 0.00 | 0.00 | 0.00 | 99 | 1011.4 |
| 20260507045306 | 3 | 68 | 0.0 | 0.0 | 0.00 | 0.00 | 0.00 | 99 | 1011.4 |
| 20260507044255 | 3 | 68 | 0.0 | 0.0 | 0.00 | 0.00 | 0.00 | 99 | 1011.4 |
| 20260507043257 | 3 | 68 | 0.0 | 0.0 | 0.00 | 0.00 | 0.00 | 99 | 1011.4 |
| 20260507042242 | 3 | 68 | 0.0 | 0.0 | 0.00 | 0.00 | 0.00 | 99 | 1011.4 |
| 20260507041235 | 3 | 68 | 0.0 | 0.0 | 0.00 | 0.00 | 0.00 | 99 | 1011.4 |
| 20260507040228 | 3 | 68 | 0.0 | 0.0 | 0.00 | 0.00 | 0.00 | 99 | 1011.5 |
| 20260507035222 | 3 | 68 | 0.0 | 0.0 | 0.00 | 0.00 | 0.00 | 99 | 1011.5 |
| 20260507034217 | 3 | 68 | 0.0 | 0.0 | 0.00 | 0.00 | 0.00 | 99 | 1011.6 |
| 20260507033207 | 3 | 68 | 0.0 | 0.0 | 0.00 | 0.00 | 0.00 | 99 | 1011.6 |
| 20260507032200 | 3 | 68 | 0.0 | 0.0 | 0.00 | 0.00 | 0.00 | 99 | 1011.5 |
| 20260507031154 | 3 | 68 | 0.0 | 0.0 | 0.00 | 0.00 | 0.00 | 99 | 1011.6 |
| 20260507030146 | 3 | 68 | 0.0 | 0.0 | 0.00 | 0.00 | 0.00 | 99 | 1011.6 |
| 20260507025139 | 3 | 68 | 0.0 | 0.0 | 0.00 | 0.00 | 0.00 | 99 | 1011.6 |
| 20260507024134 | 3 | 68 | 0.0 | 0.0 | 0.00 | 0.00 | 0.00 | 99 | 1011.6 |
| 20260507023125 | 3 | 68 | 0.0 | 0.0 | 0.00 | 0.00 | 0.00 | 99 | 1011.5 |
| 20260507022120 | 3 | 68 | 0.0 | 0.0 | 0.00 | 0.00 | 0.00 | 99 | 1011.6 |
| 20260507021121 | 3 | 68 | 0.0 | 0.0 | 0.00 | 0.00 | 0.00 | 99 | 1011.7 |
| 20260507020104 | 4 | 68 | 0.0 | 0.0 | 0.00 | 0.00 | 0.00 | 99 | 1011.8 |
| 20260507015057 | 5 | 68 | 0.0 | 0.0 | 0.00 | 0.00 | 0.00 | 99 | 1011.8 |
| 20260507014054 | 5 | 68 | 0.0 | 0.0 | 0.00 | 0.00 | 0.00 | 99 | 1011.7 |
| 20260507013042 | 5 | 68 | 0.0 | 0.0 | 0.00 | 0.00 | 0.00 | 99 | 1011.7 |
| 20260507012035 | 4 | 68 | 0.0 | 0.0 | 0.00 | 0.00 | 0.00 | 99 | 1011.9 |
| 20260507011028 | 4 | 68 | 0.0 | 0.0 | 0.00 | 0.00 | 0.00 | 99 | 1012.0 |
| 20260507010021 | 5 | 68 | 0.0 | 0.0 | 0.00 | 0.00 | 0.00 | 99 | 1012.0 |
| 20260507005014 | 5 | 68 | 0.0 | 0.0 | 0.00 | 0.00 | 0.00 | 99 | 1012.0 |
| 20260507004007 | 5 | 68 | 0.0 | 0.0 | 0.00 | 0.00 | 0.00 | 99 | 1012.0 |
| 20260507003000 | 5 | 68 | 0.0 | 0.0 | 0.00 | 0.00 | 0.00 | 99 | 1012.1 |
| 20260507001954 | 5 | 68 | 0.0 | 0.0 | 0.00 | 0.00 | 0.00 | 99 | 1012.1 |
| 20260507000946 | 5 | 68 | 0.0 | 0.0 | 0.00 | 0.00 | 0.00 | 99 | 1012.2 |
| 20260506235939 | 5 | 68 | 0.0 | 0.0 | 0.00 | 0.00 | 0.00 | 99 | 1012.3 |
| 20260506234933 | 5 | 113 | 0.0 | 0.0 | 0.00 | 0.00 | 0.00 | 99 | 1012.3 |
| 20260506233927 | 6 | 68 | 0.0 | 0.0 | 0.00 | 0.00 | 0.00 | 99 | 1012.3 |
| 20260506232920 | 6 | 68 | 0.0 | 0.0 | 0.00 | 0.00 | 0.00 | 99 | 1012.3 |
| 20260506231912 | 6 | 68 | 0.0 | 1.6 | 0.00 | 0.00 | 0.00 | 99 | 1012.2 |
| 20260506230905 | 6 | 45 | 0.0 | 0.0 | 0.00 | 0.00 | 0.00 | 99 | 1012.2 |
| 20260506225858 | 6 | 68 | 0.0 | 3.2 | 0.00 | 0.00 | 0.00 | 99 | 1012.2 |
| 20260506224852 | 6 | 68 | 0.0 | 1.6 | 0.00 | 0.00 | 0.00 | 99 | 1012.0 |
| 20260506223845 | 6 | 68 | 0.0 | 1.6 | 0.00 | 0.00 | 0.00 | 99 | 1012.0 |
| 20260506222837 | 6 | 68 | 0.0 | 3.2 | 0.00 | 0.00 | 0.00 | 99 | 1012.1 |
| 20260506221832 | 6 | 68 | 0.0 | 4.8 | 0.00 | 0.00 | 0.00 | 99 | 1012.1 |
| 20260506220823 | 6 | 68 | 0.0 | 1.6 | 0.00 | 0.00 | 0.00 | 99 | 1012.1 |
| 20260506215816 | 6 | 68 | 0.0 | 0.0 | 0.00 | 0.00 | 0.00 | 99 | 1012.1 |
| 20260506214812 | 6 | 68 | 1.6 | 9.7 | 0.00 | 0.00 | 0.00 | 99 | 1012.2 |
| 20260506213802 | 6 | 68 | 0.0 | 0.0 | 0.00 | 0.00 | 0.00 | 99 | 1012.1 |
| 20260506212755 | 6 | 45 | 0.0 | 0.0 | 0.00 | 0.00 | 0.00 | 98 | 1012.1 |
| 20260506211748 | 6 | 68 | 0.0 | 0.0 | 0.00 | 0.00 | 0.00 | 98 | 1012.2 |
| 20260506210741 | 7 | 45 | 0.0 | 1.6 | 0.00 | 0.00 | 0.00 | 96 | 1012.0 |
| 20260506205734 | 7 | 68 | 0.0 | 0.0 | 0.00 | 0.00 | 0.00 | 94 | 1012.0 |
| 20260506204727 | 7 | 68 | 0.0 | 3.2 | 0.00 | 0.00 | 0.00 | 92 | 1012.0 |
| 20260506203721 | 7 | 68 | 0.0 | 1.6 | 0.00 | 0.00 | 0.00 | 91 | 1011.7 |
| 20260506202715 | 7 | 68 | 0.0 | 1.6 | 0.00 | 0.00 | 0.00 | 89 | 1011.5 |
| 20260506201712 | 7 | 45 | 0.0 | 1.6 | 0.00 | 0.00 | 0.00 | 88 | 1011.4 |
| 20260506200701 | 8 | 45 | 0.0 | 6.4 | 0.00 | 0.00 | 0.00 | 86 | 1011.4 |
| 20260506195654 | 8 | 45 | 0.0 | 4.8 | 0.00 | 0.00 | 0.00 | 83 | 1011.3 |
| 20260506194647 | 8 | 68 | 0.0 | 4.8 | 0.00 | 0.00 | 0.00 | 80 | 1011.2 |
| 20260506193640 | 8 | 45 | 0.0 | 4.8 | 0.00 | 0.00 | 0.00 | 78 | 1011.0 |
| 20260506192633 | 8 | 45 | 0.0 | 4.8 | 0.00 | 0.00 | 0.00 | 76 | 1011.0 |
| 20260506191626 | 9 | 68 | 0.0 | 4.8 | 0.00 | 0.00 | 0.00 | 73 | 1010.8 |
| 20260506190619 | 10 | 68 | 0.0 | 3.2 | 0.00 | 0.00 | 0.00 | 71 | 1010.7 |
| 20260506185613 | 10 | 113 | 0.0 | 3.2 | 0.00 | 0.00 | 0.00 | 68 | 1010.6 |
| 20260506184606 | 10 | 68 | 0.0 | 8.0 | 0.00 | 0.00 | 0.00 | 66 | 1010.4 |
| 20260506183600 | 10 | 23 | 0.0 | 9.7 | 0.00 | 0.00 | 0.00 | 64 | 1010.3 |
| 20260506182553 | 11 | 45 | 0.0 | 8.0 | 0.00 | 0.00 | 0.00 | 64 | 1010.2 |
| 20260506181546 | 11 | 45 | 0.0 | 9.7 | 0.00 | 0.00 | 0.00 | 64 | 1010.1 |
| 20260506180539 | 11 | 68 | 0.0 | 9.7 | 0.00 | 0.00 | 0.00 | 63 | 1010.0 |
| 20260506175533 | 11 | 45 | 0.0 | 9.7 | 0.00 | 0.00 | 0.00 | 62 | 1009.9 |
| 20260506174526 | 11 | 68 | 1.6 | 11.3 | 0.00 | 0.00 | 0.00 | 59 | 1009.9 |
| 20260506173520 | 12 | 45 | 1.6 | 17.7 | 0.00 | 0.00 | 0.00 | 57 | 1009.9 |
| 20260506172513 | 12 | 45 | 4.8 | 14.5 | 0.00 | 0.00 | 0.00 | 56 | 1009.8 |
| 20260506171506 | 13 | 45 | 4.8 | 14.5 | 0.00 | 0.00 | 0.00 | 56 | 1009.8 |
| 20260506170459 | 13 | 45 | 0.0 | 17.7 | 0.00 | 0.00 | 0.00 | 55 | 1009.9 |
| 20260506165453 | 13 | 45 | 0.0 | 8.0 | 0.00 | 0.00 | 0.00 | 53 | 1010.0 |
| 20260506164446 | 13 | 68 | 3.2 | 14.5 | 0.00 | 0.00 | 0.00 | 53 | 1010.0 |
| 20260506163440 | 14 | 113 | 0.0 | 14.5 | 0.00 | 0.00 | 0.00 | 51 | 1010.0 |
| 20260506162434 | 14 | 23 | 4.8 | 16.1 | 0.00 | 0.00 | 0.00 | 50 | 1009.8 |
| 20260506161431 | 14 | 68 | 3.2 | 11.3 | 0.00 | 0.00 | 0.00 | 48 | 1009.8 |
| 20260506160422 | 15 | 68 | 1.6 | 17.7 | 0.00 | 0.00 | 0.00 | 45 | 1009.8 |
| 20260506155416 | 16 | 68 | 4.8 | 17.7 | 0.00 | 0.00 | 0.00 | 43 | 1009.8 |
| 20260506154411 | 19 | 68 | 0.0 | 4.8 | 0.00 | 0.00 | 0.00 | 44 | 1009.5 |
| 20260506153402 | 17 | 203 | 0.0 | 0.0 | 0.00 | 0.00 | 0.00 | 42 | 1009.7 |
| 20260506152356 | 16 | 203 | 0.0 | 0.0 | 0.00 | 0.00 | 0.00 | 40 | 1009.7 |
| 20260506151351 | 17 | 203 | 0.0 | 0.0 | 0.00 | 0.00 | 0.00 | 40 | 1009.8 |
| 20260506150342 | 17 | 203 | 0.0 | 0.0 | 0.00 | 0.00 | 0.00 | 40 | 1009.8 |
| 20260506145336 | 17 | 203 | 0.0 | 4.8 | 0.00 | 0.00 | 0.00 | 39 | 1009.8 |
| 20260506144331 | 21 | 203 | 0.0 | 3.2 | 0.00 | 0.00 | 0.00 | 37 | 1009.7 |
| 20260506143322 | 20 | 203 | 0.0 | 4.8 | 0.00 | 0.00 | 0.00 | 40 | 1009.9 |
| 20260506142322 | 19 | 203 | 0.0 | 0.0 | 0.00 | 0.00 | 0.00 | 38 | 1010.1 |
| 20260506141311 | 20 | 203 | 1.6 | 8.0 | 0.00 | 0.00 | 0.00 | 39 | 1010.2 |
| 20260506140302 | 20 | 315 | 0.0 | 4.8 | 0.00 | 0.00 | 0.00 | 42 | 1010.2 |
| 20260506135255 | 20 | 225 | 0.0 | 3.2 | 0.00 | 0.00 | 0.00 | 38 | 1010.3 |
| 20260506134251 | 20 | 270 | 0.0 | 6.4 | 0.00 | 0.00 | 0.00 | 40 | 1010.4 |
| 20260506133241 | 21 | 270 | 0.0 | 0.0 | 0.00 | 0.00 | 0.00 | 41 | 1010.4 |
| 20260506132234 | 20 | 270 | 0.0 | 4.8 | 0.00 | 0.00 | 0.00 | 39 | 1010.5 |
| 20260506131227 | 19 | 270 | 0.0 | 3.2 | 0.00 | 0.00 | 0.00 | 38 | 1010.6 |
| 20260506130221 | 18 | 270 | 0.0 | 4.8 | 0.00 | 0.00 | 0.00 | 41 | 1010.7 |
| 20260506125214 | 21 | 248 | 1.6 | 4.8 | 0.00 | 0.00 | 0.00 | 40 | 1010.7 |
| 20260506124207 | 20 | 203 | 0.0 | 6.4 | 0.00 | 0.00 | 0.00 | 40 | 1010.8 |
| 20260506123201 | 20 | 180 | 1.6 | 8.0 | 0.00 | 0.00 | 0.00 | 42 | 1010.8 |
| 20260506122154 | 19 | 203 | 0.0 | 1.6 | 0.00 | 0.00 | 0.00 | 39 | 1010.9 |
| 20260506121147 | 20 | 225 | 0.0 | 9.7 | 0.00 | 0.00 | 0.00 | 40 | 1010.9 |
| 20260506120140 | 18 | 270 | 0.0 | 8.0 | 0.00 | 0.00 | 0.00 | 38 | 1010.9 |
| 20260506115134 | 20 | 203 | 0.0 | 0.0 | 0.00 | 0.00 | 0.00 | 41 | 1010.9 |
| 20260506114127 | 19 | 225 | 0.0 | 3.2 | 0.00 | 0.00 | 0.00 | 42 | 1011.2 |
| 20260506113119 | 18 | 203 | 1.6 | 11.3 | 0.00 | 0.00 | 0.00 | 42 | 1011.3 |
| 20260506112112 | 18 | 225 | 0.0 | 0.0 | 0.00 | 0.00 | 0.00 | 44 | 1011.3 |
| 20260506110119 | 16 | 225 | 0.0 | 0.0 | 0.00 | 0.00 | 0.00 | 45 | 1011.5 |
| 20260506105112 | 17 | 225 | 1.6 | 6.4 | 0.00 | 0.00 | 0.00 | 49 | 1011.6 |
| 20260506104105 | 16 | 225 | 0.0 | 6.4 | 0.00 | 0.00 | 0.00 | 47 | 1011.8 |
| 20260506103058 | 15 | 158 | 0.0 | 0.0 | 0.00 | 0.00 | 0.00 | 51 | 1011.8 |
| 20260506102053 | 15 | 225 | 0.0 | 0.0 | 0.00 | 0.00 | 0.00 | 49 | 1011.8 |
| 20260506100037 | 12 | 248 | 0.0 | 0.0 | 0.00 | 0.00 | 0.00 | 53 | 1012.1 |
| 20260506095027 | 13 | 270 | 0.0 | 0.0 | 0.00 | 0.00 | 0.00 | 55 | 1012.0 |
| 20260506094019 | 13 | 270 | 0.0 | 0.0 | 0.00 | 0.00 | 0.00 | 54 | 1011.9 |
| 20260506093013 | 11 | 270 | 0.0 | 0.0 | 0.00 | 0.00 | 0.00 | 58 | 1012.0 |
| 20260506092005 | 13 | 270 | 0.0 | 0.0 | 0.00 | 0.00 | 0.00 | 57 | 1011.8 |
| 20260506090957 | 10 | 315 | 0.0 | 0.0 | 0.00 | 0.00 | 0.00 | 62 | 1012.0 |
| 20260506085953 | 10 | 315 | 0.0 | 1.6 | 0.00 | 0.00 | 0.00 | 66 | 1012.0 |
| 20260506084942 | 10 | 113 | 0.0 | 0.0 | 0.00 | 0.00 | 0.00 | 67 | 1012.0 |
| 20260506083936 | 8 | 68 | 0.0 | 0.0 | 0.00 | 0.00 | 0.00 | 68 | 1012.0 |
| 20260506082928 | 8 | 45 | 0.0 | 6.4 | 0.00 | 0.00 | 0.00 | 75 | 1012.0 |
| 20260506081921 | 7 | 45 | 0.0 | 0.0 | 0.00 | 0.00 | 0.00 | 79 | 1012.2 |